Tracking 19832 objects as of 25-Aug-2019
HD Live streaming from Space Station
objects crossing your sky now

FENGYUN 1C DEB

Track FENGYUN 1C DEB now!
10-day predictions


NORAD ID: 29875
Int'l Code: 1999-025FV
Perigee: 759.1 km
Apogee: 876.8 km
Inclination: 98.6 °
Period: 101.1 minutes
Semi major axis: 7188 km
RCS: 0.0547 m2 (small)
Launch date: May 10, 1999
Source: People's Republic of China (PRC)
Launch site: Taiyaun Space Center, China (TSC)

Note: This is SATELLITE DEBRIS
aabbcc
Your satellite tracking list
Your tracking list is empty




NASA's NSSDC Master Catalog

Two Line Element Set (TLE):
1 29875U 99025FV  19236.74370628 -.00000032 +00000-0 +50829-5 0  9999
2 29875 098.6427 319.5207 0081867 296.8106 217.6666 14.24303674655495
Source of the keplerian elements: AFSPC